This demonstration page uses our WeatherBlox Daily Observations layout. Learn more.

Left ArrowRight Arrow

Hourly Observations for August 13, 2022

Temp ( °F °C ) Dew Point ( °F °C ) Humidity (%) Winds ( mph kmh ) Pressure ( in mb ) Visibility ( mi km ) Precip ( " mm )
12:53 am 00:53 Clear 68 20 59 15 73 73 SE 13 20 29.96 1015 10 16 0.00 0.00
1:53 am 01:53 Clear 68 20 58 14.4 70 70 SE 13 20 29.96 1014 10 16 0.00 0.00
2:53 am 02:53 Clear 65 18.3 59 15 81 81 Calm 29.96 1015 10 16 0.00 0.00
3:53 am 03:53 Clear 62 16.7 58 14.4 86 86 Calm 29.97 1015 10 16 0.00 0.00
4:53 am 04:53 Clear 60 15.6 58 14.4 93 93 N 3 6 29.97 1015 10 16 0.00 0.00
5:53 am 05:53 Clear 57 13.9 56 13.3 96 96 ESE 6 9 29.98 1015 10 16 0.00 0.00
6:53 am 06:53 Sunny 59 15 57 13.9 93 93 SE 6 9 29.99 1016 10 16 0.00 0.00
7:53 am 07:53 Sunny 66 18.9 61 16.1 84 84 E 6 9 29.99 1016 10 16 0.00 0.00
8:53 am 08:53 Sunny 71 21.7 60 15.6 68 68 ENE 6 9 29.99 1016 10 16 0.00 0.00
9:53 am 09:53 Sunny 74 23.3 61 16.1 64 64 E 7 11 29.98 1015 10 16 0.00 0.00
10:53 am 10:53 Sunny 78 25.6 60 15.6 54 54 Calm 29.98 1015 10 16 0.00 0.00
11:53 am 11:53 Sunny 83 28.3 61 16.1 48 48 VRB 3 6 29.96 1014 10 16 0.00 0.00
12:53 pm 12:53 Sunny 85 29.4 59 15 42 42 Calm 29.93 1014 10 16 0.00 0.00
1:53 pm 13:53 Sunny 89 31.7 58 14.4 35 35 VRB 3 6 29.91 1013 10 16 0.00 0.00
2:53 pm 14:53 Sunny 93 33.9 53 11.7 26 26 VRB 6 9 29.89 1012 10 16 0.00 0.00
3:53 pm 15:53 Sunny 94 34.4 52 11.1 24 24 Calm 29.87 1011 10 16 0.00 0.00
4:53 pm 16:53 Sunny 95 35 53 11.7 24 24 VRB 7 11 29.85 1011 10 16 0.00 0.00
5:53 pm 17:53 Sunny 93 33.9 51 10.6 24 24 S 5 7 29.84 1011 10 16 0.00 0.00
6:53 pm 18:53 Sunny 91 32.8 57 13.9 32 32 E 7 11 29.83 1010 10 16 0.00 0.00
7:53 pm 19:53 Sunny 90 32.2 58 14.4 34 34 SE 5 7 29.83 1010 10 16 0.00 0.00
8:53 pm 20:53 Clear 84 28.9 42 5.6 23 23 NW 3 6 29.84 1010 10 16 0.00 0.00
9:53 pm 21:53 Clear 73 22.8 42 5.6 33 33 SSW 8 13 29.86 1011 10 16 0.00 0.00
10:53 pm 22:53 Clear 71 21.7 44 6.7 38 38 WSW 8 13 29.86 1011 10 16 0.00 0.00
11:53 pm 23:53 Clear 68 20 45 7.2 43 43 S 6 9 29.85 1011 10 16 0.00 0.00

Powered by AerisWeather